TimeEDT,TemperatureF,Dew PointF,Humidity,Sea Level PressureIn,VisibilityMPH,Wind Direction,Wind SpeedMPH,Gust SpeedMPH,PrecipitationIn,Events,Conditions,WindDirDegrees,DateUTC
12:15 AM,62.6,57.2,82,29.96,10.0,North,3.5,-,N/A,,Mostly Cloudy,10,2013-06-18 04:15:00
12:35 AM,62.6,57.2,82,29.95,10.0,Calm,Calm,-,N/A,,Scattered Clouds,0,2013-06-18 04:35:00
12:55 AM,60.8,57.2,88,29.95,10.0,Calm,Calm,-,N/A,,Partly Cloudy,0,2013-06-18 04:55:00
1:15 AM,60.8,55.4,82,29.95,10.0,Calm,Calm,-,N/A,,Clear,0,2013-06-18 05:15:00
1:35 AM,60.8,57.2,88,29.95,10.0,Calm,Calm,-,N/A,,Clear,0,2013-06-18 05:35:00
1:55 AM,60.8,57.2,88,29.95,10.0,Calm,Calm,-,N/A,,Partly Cloudy,0,2013-06-18 05:55:00
2:15 AM,60.8,57.2,88,29.95,10.0,North,4.6,-,N/A,,Clear,350,2013-06-18 06:15:00
2:35 AM,60.8,55.4,82,29.94,10.0,NE,3.5,-,N/A,,Clear,40,2013-06-18 06:35:00
2:55 AM,60.8,55.4,82,29.93,10.0,Calm,Calm,-,N/A,,Scattered Clouds,0,2013-06-18 06:55:00
3:15 AM,60.8,55.4,82,29.93,10.0,Calm,Calm,-,N/A,,Overcast,0,2013-06-18 07:15:00
3:35 AM,60.8,55.4,82,29.93,10.0,East,3.5,-,N/A,,Scattered Clouds,100,2013-06-18 07:35:00
3:55 AM,60.8,55.4,82,29.92,10.0,NE,3.5,-,N/A,,Clear,40,2013-06-18 07:55:00
4:15 AM,60.8,55.4,82,29.92,10.0,East,4.6,-,N/A,,Clear,100,2013-06-18 08:15:00
4:35 AM,60.8,55.4,82,29.92,10.0,Calm,Calm,-,N/A,,Clear,0,2013-06-18 08:35:00
4:55 AM,59.0,55.4,88,29.92,10.0,Calm,Calm,-,N/A,,Clear,0,2013-06-18 08:55:00
5:15 AM,57.2,53.6,88,29.93,10.0,Calm,Calm,-,N/A,,Clear,0,2013-06-18 09:15:00
5:35 AM,59.0,55.4,88,29.92,10.0,East,3.5,-,N/A,,Clear,80,2013-06-18 09:35:00
5:45 AM,60.8,55.4,82,29.93,10.0,East,3.5,-,N/A,,Clear,80,2013-06-18 09:45:00
5:55 AM,60.8,55.4,82,29.93,10.0,Calm,Calm,-,N/A,,Clear,0,2013-06-18 09:55:00
6:45 AM,60.8,55.4,82,29.94,10.0,Calm,Calm,-,N/A,,Clear,0,2013-06-18 10:45:00
7:45 AM,68.0,59.0,73,29.94,10.0,Calm,Calm,-,N/A,,Clear,0,2013-06-18 11:45:00
9:45 AM,73.4,60.8,65,29.96,10.0,ESE,5.8,-,N/A,,Clear,120,2013-06-18 13:45:00
10:45 AM,73.4,62.6,69,29.95,10.0,South,8.1,-,N/A,,Clear,170,2013-06-18 14:45:00
11:45 AM,75.2,64.4,69,29.93,10.0,SSE,5.8,-,N/A,,Clear,150,2013-06-18 15:45:00
12:45 PM,77.0,66.2,69,29.92,10.0,South,9.2,-,N/A,,Partly Cloudy,170,2013-06-18 16:45:00
1:45 PM,77.0,66.2,69,29.89,10.0,SE,6.9,-,N/A,,Partly Cloudy,140,2013-06-18 17:45:00
2:45 PM,77.0,66.2,69,29.88,10.0,South,8.1,-,N/A,,Scattered Clouds,170,2013-06-18 18:45:00
3:25 PM,75.2,66.2,73,29.88,7.0,South,8.1,-,N/A,Thunderstorm,Thunderstorm,170,2013-06-18 19:25:00
3:45 PM,75.2,66.2,73,29.89,2.0,WNW,11.5,18.4,N/A,Rain-Thunderstorm,Thunderstorms and Rain,290,2013-06-18 19:45:00
4:45 PM,64.4,57.2,77,29.92,4.0,North,9.2,-,N/A,Rain-Thunderstorm,Thunderstorms and Rain,10,2013-06-18 20:45:00
5:45 PM,64.4,60.8,88,29.90,3.0,East,9.2,-,N/A,Rain-Thunderstorm,Light Thunderstorms and Rain,80,2013-06-18 21:45:00
6:30 PM,62.6,59.0,88,29.90,7.0,NE,8.1,-,N/A,,Overcast,50,2013-06-18 22:30:00
6:50 PM,62.6,59.0,88,29.92,5.0,East,5.8,-,N/A,Rain,Light Rain,80,2013-06-18 22:50:00
7:50 PM,62.6,59.0,88,29.91,5.0,ENE,9.2,-,N/A,,Overcast,70,2013-06-18 23:50:00
8:48 PM,62.6,59.0,88,29.91,6.0,NE,10.4,16.1,N/A,,Overcast,50,2013-06-19 00:48:00
9:15 PM,62.6,57.2,82,29.91,10.0,ENE,9.2,16.1,N/A,,Overcast,60,2013-06-19 01:15:00
9:35 PM,62.6,57.2,82,29.92,10.0,ENE,10.4,-,N/A,,Overcast,60,2013-06-19 01:35:00
9:55 PM,62.6,57.2,82,29.92,10.0,NE,12.7,19.6,N/A,,Overcast,50,2013-06-19 01:55:00
10:15 PM,60.8,57.2,88,29.93,7.0,NE,6.9,-,N/A,,Overcast,50,2013-06-19 02:15:00
10:35 PM,60.8,55.4,82,29.93,9.0,NE,9.2,16.1,N/A,,Overcast,50,2013-06-19 02:35:00
10:55 PM,60.8,55.4,82,29.93,10.0,NE,10.4,-,N/A,,Overcast,50,2013-06-19 02:55:00
11:15 PM,60.8,55.4,82,29.93,7.0,NE,8.1,-,N/A,,Overcast,40,2013-06-19 03:15:00
11:35 PM,60.8,55.4,82,29.93,4.0,NNE,11.5,17.3,N/A,,Overcast,30,2013-06-19 03:35:00
11:55 PM,59.0,55.4,88,29.93,4.0,NE,11.5,18.4,N/A,,Overcast,40,2013-06-19 03:55:00